Weather History for Colorado City, AZ

Change the Weather History Date:

Tuesday, March 25, 2014

  Actual Average (KCDC) Record (KCDC)
Temperature  
Mean Temperature 52 °F 42 °F  
Max Temperature 75 °F 57 °F 72 °F (1960)
Min Temperature 30 °F 27 °F 7 °F (1965)
Degree Days  
Heating Degree Days 12 23  
Month to date heating degree days 637  
Since 1 July heating degree days 5199  
Cooling Degree Days 0 0  
Month to date cooling degree days 0  
Year to date cooling degree days 0  
Growing Degree Days 2 (Base 50)    
Moisture  
Dew Point 11 °F    
Average Humidity 21    
Maximum Humidity 48    
Minimum Humidity 8    
Precipitation  
Precipitation 0.00 in 0.05 in 0.69 in (1950)
Month to date precipitation 1.10  
Year to date precipitation 2.96  
Sea Level Pressure  
Sea Level Pressure 29.98 in    
Wind  
Wind Speed 5 mph (SSE)    
Max Wind Speed 15 mph    
Max Gust Speed 24 mph    
Visibility 10 miles    
Events      
T = Trace of Precipitation, MM = Missing Value Source: NWS Daily Summary

Daily Weather History Graph

Daily Weather History Graph

Search for Another Location

Airport:

Trip Planner

Search our weather history database for the weather conditions in past years. The results will help you decide how hot, cold, wet, or windy it might be!

Date:

Astronomy

Mar. 25, 2014 Rise Set
Actual Time 6:28 AM MST 6:48 PM MST
Civil Twilight 6:02 AM MST 7:14 PM MST
Nautical Twilight 5:31 AM MST 7:44 PM MST
Astronomical Twilight 5:00 AM MST 8:15 PM MST
Moon 2:45 AM MST (3/25) 1:30 PM MST (3/25)
Length of Visible Light 13h 12m
Length of Day
12h 20m
Waning Crescent, 31% of the Moon is Illuminated
Mar 25
Waning Crescent
Mar 30
New
Apr 7
First Quarter
Apr 15
Full
Apr 22
Last Quarter

Hourly Weather History & Observations

Time (MST) Temp. Windchill Dew Point Humidity Pressure Visibility Wind Dir Wind Speed Gust Speed Precip Events Conditions
12:15 AM 51.8 °F - 9.0 °F 18% 30.16 in 10.0 mi SSE 5.8 mph - N/A   Clear
12:35 AM 45.3 °F 41.6 °F 8.6 °F 22% 30.15 in 10.0 mi SSE 6.9 mph - N/A   Clear
12:55 AM 44.1 °F 39.5 °F 8.6 °F 24% 30.15 in 10.0 mi South 8.1 mph - N/A   Clear
1:15 AM 43.7 °F - 8.6 °F 24% 30.15 in 10.0 mi Calm Calm - N/A   Clear
1:35 AM 42.3 °F 40.5 °F 8.4 °F 25% 30.15 in 10.0 mi SE 3.5 mph - N/A   Clear
1:55 AM 40.3 °F 36.3 °F 8.6 °F 27% 30.15 in 10.0 mi SSE 5.8 mph - N/A   Clear
2:15 AM 39.4 °F - 8.8 °F 28% 30.14 in 10.0 mi Calm Calm - N/A   Clear
2:35 AM 38.7 °F 36.3 °F 8.8 °F 29% 30.13 in 10.0 mi South 3.5 mph - N/A   Clear
2:55 AM 38.1 °F 35.7 °F 8.8 °F 30% 30.12 in 10.0 mi South 3.5 mph - N/A   Clear
3:15 AM 39.2 °F 37.0 °F 9.0 °F 29% 30.12 in 10.0 mi South 3.5 mph - N/A   Clear
3:35 AM 37.9 °F - 8.6 °F 30% 30.11 in 10.0 mi Calm Calm - N/A   Clear
3:55 AM 37.6 °F 32.3 °F 8.8 °F 30% 30.11 in 10.0 mi South 6.9 mph - N/A   Clear
4:15 AM 37.6 °F 33.1 °F 9.3 °F 31% 30.11 in 10.0 mi SSE 5.8 mph - N/A   Clear
4:35 AM 37.0 °F 32.4 °F 9.5 °F 32% 30.11 in 10.0 mi SE 5.8 mph - N/A   Clear
4:55 AM 35.8 °F - 9.3 °F 33% 30.12 in 10.0 mi Calm Calm - N/A   Clear
5:15 AM 34.0 °F - 9.1 °F 36% 30.11 in 10.0 mi Calm Calm - N/A   Clear
5:35 AM 32.4 °F - 9.1 °F 38% 30.11 in 10.0 mi Calm Calm - N/A   Clear
5:55 AM 31.8 °F - 10.0 °F 40% 30.11 in 10.0 mi Calm Calm - N/A   Clear
6:15 AM 31.1 °F - 10.8 °F 43% 30.11 in 10.0 mi Calm Calm - N/A   Clear
6:35 AM 30.4 °F - 12.6 °F 48% 30.11 in 10.0 mi Calm Calm - N/A   Clear
6:55 AM 30.9 °F - 11.8 °F 45% 30.11 in 10.0 mi Calm Calm - N/A   Clear
7:15 AM 31.6 °F - 12.4 °F 45% 30.11 in 10.0 mi Calm Calm - N/A   Clear
7:35 AM 35.1 °F - 12.0 °F 39% 30.11 in 10.0 mi Calm Calm - N/A   Clear
7:55 AM 41.7 °F - 12.6 °F 31% 30.10 in 10.0 mi Calm Calm - N/A   Clear
8:15 AM 47.8 °F - 12.7 °F 24% 30.10 in 10.0 mi SSE 3.5 mph - N/A   Clear
8:35 AM 53.1 °F - 12.0 °F 20% 30.09 in 10.0 mi Calm Calm - N/A   Clear
8:55 AM 57.9 °F - 10.4 °F 15% 30.09 in 10.0 mi ESE 3.5 mph - N/A   Clear
9:15 AM 60.1 °F - 10.0 °F 14% 30.09 in 10.0 mi Calm Calm - N/A   Clear
9:35 AM 61.3 °F - 10.9 °F 14% 30.08 in 10.0 mi Calm Calm - N/A   Clear
9:55 AM 65.1 °F - 11.5 °F 12% 30.08 in 10.0 mi SE 6.9 mph - N/A   Clear
10:15 AM 67.3 °F - 10.2 °F 11% 30.08 in 10.0 mi SE 5.8 mph - N/A   Clear
10:35 AM 68.0 °F - 9.5 °F 10% 30.07 in 10.0 mi SSE 8.1 mph - N/A   Clear
10:55 AM 68.5 °F - 8.8 °F 10% 30.06 in 10.0 mi SSE 5.8 mph - N/A   Clear
11:15 AM 68.7 °F - 9.1 °F 10% 30.05 in 10.0 mi South 6.9 mph - N/A   Clear
11:35 AM 69.4 °F - 8.8 °F 9% 30.04 in 10.0 mi South 6.9 mph - N/A   Clear
11:55 AM 70.9 °F - 7.9 °F 9% 30.03 in 10.0 mi South 11.5 mph - N/A   Clear
12:15 PM 71.4 °F - 8.2 °F 9% 30.01 in 10.0 mi SSE 11.5 mph 16.1 mph N/A   Clear
12:35 PM 72.1 °F - 8.6 °F 9% 30.00 in 10.0 mi South 6.9 mph - N/A   Clear
12:55 PM 73.2 °F - 8.4 °F 8% 29.98 in 10.0 mi South 4.6 mph 16.1 mph N/A   Clear
1:15 PM 73.9 °F - 8.4 °F 8% 29.97 in 10.0 mi ESE 11.5 mph - N/A   Clear
1:35 PM 74.3 °F - 8.6 °F 8% 29.95 in 10.0 mi ESE 5.8 mph 18.4 mph N/A   Clear
1:55 PM 75.0 °F - 8.2 °F 8% 29.93 in 10.0 mi South 5.8 mph 19.6 mph N/A   Clear
2:15 PM 74.7 °F - 8.6 °F 8% 29.92 in 10.0 mi SSE 10.4 mph 16.1 mph N/A   Clear
2:35 PM 75.4 °F - 9.5 °F 8% 29.90 in 10.0 mi SSE 15.0 mph 24.2 mph N/A   Clear
2:55 PM 75.4 °F - 10.0 °F 8% 29.89 in 10.0 mi South 6.9 mph 18.4 mph N/A   Clear
3:15 PM 75.2 °F - 10.8 °F 8% 29.88 in 10.0 mi WSW 6.9 mph 19.6 mph N/A   Clear
3:35 PM 74.7 °F - 11.5 °F 9% 29.87 in 10.0 mi SW 9.2 mph - N/A   Clear
3:55 PM 74.3 °F - 11.8 °F 9% 29.86 in 10.0 mi SSW 11.5 mph - N/A   Clear
4:15 PM 74.5 °F - 12.0 °F 9% 29.85 in 10.0 mi South 5.8 mph - N/A   Clear
4:35 PM 74.7 °F - 12.4 °F 9% 29.84 in 10.0 mi SSE 9.2 mph - N/A   Clear
4:55 PM 75.0 °F - 12.4 °F 9% 29.82 in 10.0 mi South 8.1 mph 21.9 mph N/A   Clear
5:15 PM 74.3 °F - 12.4 °F 9% 29.82 in 10.0 mi West 10.4 mph 21.9 mph N/A   Scattered Clouds
5:35 PM 73.2 °F - 12.2 °F 10% 29.82 in 10.0 mi West 10.4 mph 23.0 mph N/A   Scattered Clouds
5:55 PM 72.1 °F - 11.8 °F 10% 29.82 in 10.0 mi West 15.0 mph - N/A   Scattered Clouds
6:15 PM 70.2 °F - 11.3 °F 10% 29.81 in 10.0 mi West 10.4 mph 16.1 mph N/A   Clear
6:35 PM 67.6 °F - 11.3 °F 11% 29.81 in 10.0 mi West 4.6 mph - N/A   Clear
6:55 PM 64.2 °F - 10.9 °F 12% 29.81 in 10.0 mi West 6.9 mph - N/A   Clear
7:15 PM 61.9 °F - 10.8 °F 13% 29.81 in 10.0 mi West 6.9 mph - N/A   Clear
7:35 PM 58.6 °F - 10.0 °F 15% 29.81 in 10.0 mi Calm Calm - N/A   Clear
7:55 PM 56.5 °F - 10.0 °F 16% 29.82 in 10.0 mi Calm Calm - N/A   Clear
8:15 PM 52.9 °F - 14.0 °F 21% 29.82 in 10.0 mi Calm Calm - N/A   Scattered Clouds
8:35 PM 51.8 °F - 15.8 °F 24% 29.82 in 10.0 mi Calm Calm - N/A   Scattered Clouds
8:55 PM 47.7 °F - 14.0 °F 26% 29.81 in 10.0 mi ESE 5.8 mph - N/A   Clear
9:15 PM 43.5 °F 40.1 °F 13.5 °F 30% 29.81 in 10.0 mi SSE 5.8 mph - N/A   Clear
9:35 PM 43.5 °F 39.4 °F 13.3 °F 29% 29.81 in 10.0 mi SE 6.9 mph - N/A   Clear
9:55 PM 41.7 °F 38.0 °F 13.8 °F 32% 29.81 in 10.0 mi SE 5.8 mph - N/A   Clear
10:15 PM 41.2 °F - 13.6 °F 33% 29.81 in 10.0 mi Calm Calm - N/A   Clear
10:35 PM 43.3 °F - 14.9 °F 32% 29.81 in 10.0 mi Calm Calm - N/A   Clear
10:55 PM 43.7 °F 42.1 °F 14.4 °F 31% 29.81 in 10.0 mi ESE 3.5 mph - N/A   Clear
11:15 PM 43.7 °F 42.1 °F 14.2 °F 30% 29.79 in 10.0 mi ESE 3.5 mph - N/A   Clear
11:35 PM 42.8 °F 41.1 °F 13.5 °F 30% 29.79 in 10.0 mi ESE 3.5 mph - N/A   Clear
11:55 PM 42.6 °F 39.9 °F 13.8 °F 31% 29.79 in 10.0 mi SE 4.6 mph - N/A   Clear